EW7603 Weather Reports


time (UTC)temp
C
wind
direction
speed
KPH
gust
KPH
rain 1hr
cm
rain 24hr
cm
rain mn
cm
humidity
%
barometer
mb
20260510130058 11 258 11.3 0.0 0.00 0.00 0.00 46 1015.3
20260510124610 10 315 9.7 0.0 0.00 0.00 0.00 51 1015.2
20260510123052 9 318 9.7 0.0 0.00 0.00 0.00 55 1015.2
20260510121548 8 316 9.7 0.0 0.00 0.00 0.00 58 1014.9
20260510120048 8 309 8.0 0.0 0.00 0.00 0.00 64 1014.9
20260510114547 6 323 4.8 0.0 0.00 0.00 0.00 78 1014.9
20260510113056 3 291 4.8 0.0 0.00 0.00 0.00 87 1014.6
20260510111603 1 281 3.2 0.0 0.00 0.00 0.00 87 1014.6
20260510110046 1 318 0.0 0.0 0.00 0.00 0.00 86 1014.4
20260510104558 0 318 0.0 0.0 0.00 0.00 0.00 85 1014.3
20260510103042 1 318 0.0 0.0 0.00 0.00 0.00 84 1013.7
20260510101539 1 318 0.0 0.0 0.00 0.00 0.00 83 1013.4
20260510100039 1 318 0.0 0.0 0.00 0.00 0.00 82 1013.2
20260510094539 1 318 0.0 0.0 0.00 0.00 0.00 82 1012.7
20260510093036 1 318 0.0 0.0 0.00 0.00 0.00 81 1012.4
20260510091548 1 318 0.0 0.0 0.00 0.00 0.00 80 1012.2
20260510090030 2 318 0.0 0.0 0.00 0.00 0.00 79 1011.9
20260510084528 2 318 0.0 0.0 0.00 0.00 0.00 77 1011.6
20260510083026 2 318 0.0 0.0 0.00 0.00 0.00 74 1011.5
20260510081534 3 318 0.0 0.0 0.00 0.00 0.00 73 1011.2
20260510080020 3 318 0.0 0.0 0.00 0.00 0.00 72 1010.9
20260510074518 4 318 1.6 0.0 0.00 0.00 0.00 68 1010.8
20260510073022 5 318 1.6 0.0 0.00 0.00 0.00 66 1010.7
20260510071515 5 319 3.2 0.0 0.00 0.00 0.00 64 1010.5
20260510070016 5 317 6.4 0.0 0.00 0.00 0.00 63 1010.3
20260510064534 6 311 8.0 0.0 0.00 0.00 0.00 62 1010.2
20260510063014 6 323 6.4 0.0 0.00 0.00 0.00 62 1010.2
20260510061505 6 355 6.4 0.0 0.00 0.00 0.00 63 1010.2
20260510060000 6 350 8.0 0.0 0.00 0.00 0.00 62 1010.1
20260510054603 7 329 9.7 0.0 0.00 0.00 0.00 62 1010.1
20260510053057 7 350 6.4 0.0 0.00 0.00 0.00 64 1009.7
20260510051605 7 299 3.2 0.0 0.00 0.00 0.00 65 1009.6
20260510050052 7 319 3.2 0.0 0.00 0.00 0.00 63 1009.2
20260510044559 8 320 4.8 0.0 0.00 0.00 0.00 62 1008.8
20260510043049 8 318 3.2 0.0 0.00 0.00 0.00 62 1008.7
20260510041559 8 345 3.2 0.0 0.00 0.00 0.00 60 1008.1
20260510040044 8 350 4.8 0.0 0.00 0.00 0.28 60 1008.2
20260510034546 9 319 6.4 0.0 0.00 0.00 0.28 59 1007.9
20260510033047 9 311 6.4 0.0 0.00 0.00 0.28 59 1008.0
20260510031548 10 291 4.8 0.0 0.00 0.00 0.28 64 1007.7
20260510030052 10 345 4.8 0.0 0.00 0.00 0.28 61 1006.8
20260510024548 11 294 4.8 0.0 0.00 0.00 0.28 60 1007.0
20260510023041 11 319 6.4 0.0 0.00 0.00 0.28 61 1006.9
20260510021539 11 345 6.4 0.0 0.00 0.00 0.28 63 1006.2
20260510020039 11 302 4.8 0.0 0.00 0.00 0.28 64 1005.8
20260510014531 12 323 4.8 0.0 0.00 0.00 0.28 64 1005.6
20260510013029 12 333 8.0 0.0 0.00 0.00 0.28 66 1005.1
20260510011529 12 282 3.2 0.0 0.00 0.00 0.28 78 1004.9
20260510010029 12 229 1.6 0.0 0.00 0.00 0.28 80 1004.6
20260510004530 13 229 1.6 0.0 0.00 0.00 0.28 79 1004.2
20260510003043 13 256 3.2 0.0 0.00 0.00 0.28 78 1004.0
20260510001528 13 312 3.2 0.0 0.00 0.00 0.28 76 1003.5
20260510000030 13 276 1.6 0.0 0.00 0.00 0.28 75 1003.3
20260509234536 14 170 4.8 0.0 0.00 0.00 0.28 74 1003.0
20260509233039 14 190 8.0 0.0 0.00 0.00 0.28 72 1003.0
20260509231529 14 197 6.4 0.0 0.00 0.00 0.28 73 1002.7
20260509230025 14 148 6.4 0.0 0.00 0.00 0.28 72 1002.5
20260509224526 14 207 6.4 0.0 0.00 0.00 0.28 74 1002.3
20260509223025 13 204 9.7 0.0 0.00 0.00 0.28 75 1002.0
20260509221523 13 201 8.0 0.0 0.00 0.00 0.28 78 1002.0
20260509220028 12 147 8.0 0.0 0.00 0.00 0.28 81 1002.4
20260509214521 12 189 8.0 0.0 0.00 0.00 0.28 82 1002.5
20260509213021 12 132 8.0 0.0 0.00 0.00 0.28 85 1002.5
20260509211520 11 168 9.7 0.0 0.00 0.00 0.28 87 1002.6
20260509210024 11 226 9.7 0.0 0.00 0.00 0.28 88 1002.7
20260509204519 10 224 9.7 0.0 0.00 0.00 0.28 85 1003.0
20260509203027 12 225 14.5 0.0 0.00 0.00 0.25 76 1002.4
20260509201518 15 200 20.9 0.0 0.00 0.00 0.00 69 1001.5
20260509200017 15 134 17.7 0.0 0.00 0.00 0.00 68 1001.7
20260509194518 15 208 24.1 0.0 0.00 0.00 0.00 68 1001.7
20260509193017 15 170 22.5 0.0 0.00 0.00 0.00 66 1001.8
20260509191516 16 185 20.9 0.0 0.00 0.00 0.00 65 1002.0
20260509190018 16 168 16.1 0.0 0.00 0.00 0.00 66 1001.9
20260509184526 16 164 19.3 0.0 0.00 0.00 0.00 66 1002.3
20260509183024 15 118 16.1 0.0 0.00 0.00 0.00 69 1002.5
20260509181517 15 207 16.1 0.0 0.00 0.00 0.00 72 1003.2
20260509180018 15 209 17.7 0.0 0.00 0.00 0.00 70 1002.7
20260509174516 16 161 17.7 0.0 0.00 0.00 0.00 66 1002.3
20260509173016 17 129 19.3 0.0 0.00 0.00 0.00 65 1002.5
20260509171520 17 176 17.7 0.0 0.00 0.00 0.00 65 1002.8
20260509170012 17 165 14.5 0.0 0.00 0.00 0.00 65 1003.3
20260509164508 16 143 14.5 0.0 0.00 0.00 0.00 65 1003.5
20260509163011 17 116 14.5 0.0 0.00 0.00 0.00 64 1003.5
20260509161510 16 164 12.9 0.0 0.00 0.00 0.00 66 1004.4
20260509160006 16 183 11.3 0.0 0.00 0.00 0.00 65 1004.5
20260509154505 16 176 9.7 0.0 0.00 0.00 0.00 63 1004.4
20260509153013 17 203 11.3 0.0 0.00 0.00 0.00 62 1004.3
20260509151615 16 155 11.3 0.0 0.00 0.00 0.00 65 1004.3
20260509150111 16 186 12.9 0.0 0.00 0.00 0.00 68 1004.5
20260509144602 16 172 12.9 0.0 0.00 0.00 0.00 67 1004.5
20260509143104 15 183 11.3 0.0 0.00 0.00 0.00 70 1004.3
20260509141554 15 164 11.3 0.0 0.00 0.00 0.00 71 1004.6
20260509140055 13 190 8.0 0.0 0.00 0.00 0.00 78 1004.7
20260509134545 12 186 9.7 0.0 0.00 0.00 0.00 83 1005.1
20260509133047 11 178 11.3 0.0 0.00 0.00 0.00 86 1005.2
20260509131539 11 168 8.0 0.0 0.00 0.00 0.00 88 1005.3